Regional Weather Roundup
Issued by NWS

Home | Current Version | Previous Version | Text Only | Print | Product List | Glossary On
Versions: 1 2 3 4 5 6 7 8 9 10 11 12 13 14 15 16 17 18 19 20 21 22 23 24 25 26 27 28 29 30 31 32 33 34 35 36 37 38 39 40 41 42 43 44 45 46 47 48 49 50
000
ASUS43 KLOT 011500
RWRIL

ILLINOIS REGIONAL WEATHER ROUNDUP
NATIONAL WEATHER SERVICE CHICAGO/ROMEOVILLE IL
900 AM CST SUN FEB 01 2015

NOTE: "FAIR" INDICATES FEW OR NO CLOUDS BELOW 12,000 FEET WITH NO
SIGNIFICANT WEATHER AND/OR OBSTRUCTIONS TO VISIBILITY.

* THESE STATIONS ARE NOT UNDER NWS QUALITY CONTROL. THEY ALSO MAY NOT
  REPORT WEATHER SUCH AS PRECIPITATION OR FOG.

ILZ001-002-007-009-015-016-024-011600-
NORTHWEST ILLINOIS

CITY           SKY/WX    TMP DP  RH WIND       PRES   REMARKS
MOLINE         SNOW      31  29  92 NE23G31   29.81F VSB 1/2 WCI  18
STERLING*        N/A    N/A N/A N/A MISG        N/A
$$

ILZ003-004-008-010-011-017-018-011600-
NORTH CENTRAL ILLINOIS

CITY           SKY/WX    TMP DP  RH WIND       PRES   REMARKS
ROCKFORD       SNOW      26  22  84 NE21G29   29.94S VSB 1/2 WCI  12
$$

ILZ005-006-012>014-019>023-011600-
NORTHEAST ILLINOIS

CITY           SKY/WX    TMP DP  RH WIND       PRES   REMARKS
CHICAGO-OHARE  SNOW      29  27  92 NE17      29.92F VSB 1/2 WCI  17
CHICAGO-MIDWAY SNOW      33  31  92 E16       29.91F VSB 1/2 WCI  23
AURORA         SNOW      31  28  89 NE21      29.89F VSB 1/4 WCI  18
WAUKEGAN       SNOW      26  24  92 NE20G31   29.97F VSB 1/4 WCI  12
DUPAGE AIRPORT SNOW      30  28  92 NE17      29.90F VSB 1/4 WCI  18
WHEELING       SNOW      29  27  92 NE17G23   29.96F VSB 1/4 WCI  17
NORTHERLY ISL    N/A     31  30  96 E20         N/A  WCI  19
$$

LMZ740>746-011600-
SOUTHERN LAKE MICHIGAN

STATION/POSITION SKY/WX   TEMP    WIND        PRES    VSBY  WAVE
                          AIR SEA DIR/SP/G                  HT/PER
                          (F)     (DEG/KT/KT) (MB)    (MI)  (FT/S)
WAUKEGAN HARBOR            27      60/ 31/ 37   N/A
HARRISON CRIB              31      70/ 23/ 27   N/A
BURNHAM HARBOR             31      60/ 20       N/A
CALUMET HARBOR             31      60/ 14/ 18   N/A
MICHIGAN CITY              30      60/ 11/ 14   N/A
$$

ILZ025>027-034>036-040-047-049-050-058-095>099-011600-
WEST-CENTRAL ILLINOIS

CITY           SKY/WX    TMP DP  RH WIND       PRES   REMARKS
QUINCY         LGT SNOW  33  31  92 E5        29.72F VSB 3/4 WCI  29
$$

ILZ028>032-037-038-041>044-048-051>054-059>061-011600-
CENTRAL ILLINOIS

CITY           SKY/WX    TMP DP  RH WIND       PRES   REMARKS
DECATUR        SNOW      33  32  96 SE9       29.78F VSB 1/2 WCI  25
PEORIA         LGT SNOW  34  32  92 E9        29.78F VSB 3/4 WCI  27
SPRINGFIELD    LGT SNOW  34  32  92 SE7       29.76F FOG     WCI  28
TAYLORVILLE    NOT AVBL
$$

ILZ033-039-045-046-055>057-062-063-011600-
EAST-CENTRAL ILLINOIS

CITY           SKY/WX    TMP DP  RH WIND       PRES   REMARKS
CHAMPAIGN      SNOW      33  31  92 SE17      29.80F VSB 1/2 WCI  22
MATTOON        LGT SNOW  33  30  88 SE15      29.79F FOG     WCI  23
$$

ILZ079-100>102-011600-
SOUTHWEST ILLINOIS

CITY           SKY/WX    TMP DP  RH WIND       PRES   REMARKS
BELLEVILLE     CLOUDY    36  36 100 SE8       29.76F FOG     WCI  30
CAHOKIA*       CLOUDY    37  35  92 SE8       29.75F WCI  31
$$

ILZ064>066-069>071-074>076-080>082-084>086-088>090-092>094-011600-
SOUTH-CENTRAL ILLINOIS

CITY           SKY/WX    TMP DP  RH WIND       PRES   REMARKS
CARBONDALE     LGT RAIN  41  39  93 S6        29.80F FOG
MARION         LGT RAIN  41  39  93 MISG      29.82R
MT. VERNON     CLOUDY    36  32  87 NE3       29.80F
$$

ILZ067-068-072-073-078-083-087-091-011600-
SOUTHEAST ILLINOIS

CITY           SKY/WX    TMP DP  RH WIND       PRES   REMARKS
LAWRENCEVILLE  RAIN      36  33  89 E6        29.84F FOG     WCI  31
$$

ABBREVIATIONS USED IN REMARKS
   TC - TEMPERATURE IN CELSIUS
  WCI - WIND CHILL INDEX
   HX - HEAT INDEX
  VSB - VISIBILITY
$$



USA.gov is the U.S. government's official web portal to all federal, state and local government web resources and services.